Location: Griffin Ranch
(33.6186°N, 110.6622°W)
Time: 10:53:34
(UTC-07:00)

Cosmos 1812 - Visible Passes

Search period start: 06 December 2016 00:00
Search period end: 16 December 2016 00:00
Orbit: 520 x 527 km, 82.5° (Epoch: 05 December)

Date Brightness Start Highest point End Pass type
(mag) Time Alt. Az. Time Alt. Az. Time Alt. Az.
06 Dec 5.0 04:40:58 23° ESE 04:40:58 23° ESE 04:43:13 10° SE visible
06 Dec 4.5 06:16:12 14° W 06:16:12 14° W 06:17:39 10° WSW visible
06 Dec 4.7 18:23:55 10° SW 18:27:19 30° W 18:30:45 10° NNW visible
07 Dec 5.6 04:29:35 14° ESE 04:29:35 14° ESE 04:30:24 10° SE visible
07 Dec 4.8 06:04:49 12° WSW 06:04:49 12° WSW 06:05:27 10° SW visible
07 Dec 4.4 18:11:10 10° SSW 18:14:42 34° W 18:18:15 10° NNW visible
08 Dec 4.2 17:58:27 10° SSW 18:02:05 40° W 18:05:44 10° N visible
09 Dec 3.9 17:45:45 10° SSW 17:49:27 47° W 17:53:11 10° N visible
